Weather History for KMWM - September, 2013

Change the Weather History Date:

Saturday, September 28, 2013

  Actual Average Record
Temperature  
Mean Temperature 60 °F -  
Max Temperature 73 °F 69 °F 89 °F (1956)
Min Temperature 48 °F 42 °F 25 °F (1961)
Degree Days  
Heating Degree Days 4    
Growing Degree Days 10 (Base 50)    
Moisture  
Dew Point 51 °F    
Average Humidity 71    
Maximum Humidity 94    
Minimum Humidity 42    
Precipitation  
Precipitation 0.14 in - - ()
Sea Level Pressure  
Sea Level Pressure 29.82 in    
Wind  
Wind Speed 14 mph (SW)    
Max Wind Speed 23 mph    
Max Gust Speed 30 mph    
Visibility 10 miles    
Events Rain    
Averages and records for this station are not official NWS values.
T = Trace of Precipitation, MM = Missing Value Source: NWS Daily Summary

Daily Weather History Graph

Daily Weather History Graph

Search for Another Location

Airport or City:

Trip Planner

Search our weather history database for the weather conditions in past years. The results will help you decide how hot, cold, wet, or windy it might be!

Date:

Astronomy

Sep. 28, 2013 Rise Set
Actual Time 7:14 AM CDT 7:06 PM CDT
Civil Twilight 6:46 AM CDT 7:34 PM CDT
Nautical Twilight 6:12 AM CDT 8:08 PM CDT
Astronomical Twilight 5:38 AM CDT 8:42 PM CDT
Moon 12:52 AM CDT (9/28) 3:35 PM CDT (9/28)
Length of Visible Light 12h 48m
Length of Day
11h 51m
Waning Crescent, 36% of the Moon is Illuminated
Sep 28
Waning Crescent
Oct 4
New
Oct 11
First Quarter
Oct 18
Full
Oct 26
Last Quarter

Hourly Weather History & Observations

Time (CDT) Temp. Dew Point Humidity Pressure Visibility Wind Dir Wind Speed Gust Speed Precip Events Conditions
12:12 AM 73.4 °F 59.0 °F 61% 29.75 in 10.0 mi SSE 16.1 mph 24.2 mph N/A   Clear
12:33 AM 73.4 °F 60.8 °F 65% 29.74 in 10.0 mi SSE 16.1 mph 26.5 mph N/A   Clear
12:52 AM 73.4 °F 60.8 °F 65% 29.74 in 10.0 mi SSE 16.1 mph 25.3 mph N/A   Clear
1:12 AM 71.6 °F 60.8 °F 69% 29.73 in 10.0 mi SSE 17.3 mph 26.5 mph N/A   Clear
1:33 AM 71.6 °F 60.8 °F 69% 29.73 in 10.0 mi SSE 18.4 mph 26.5 mph N/A   Clear
1:52 AM 71.6 °F 60.8 °F 69% 29.72 in 10.0 mi SSE 19.6 mph 26.5 mph N/A   Clear
2:12 AM 71.6 °F 60.8 °F 69% 29.72 in 10.0 mi SSE 13.8 mph 25.3 mph N/A   Clear
2:33 AM 69.8 °F 60.8 °F 73% 29.71 in 10.0 mi SSE 15.0 mph 21.9 mph N/A   Clear
2:52 AM 69.8 °F 60.8 °F 73% 29.70 in 10.0 mi SSE 17.3 mph 21.9 mph N/A   Clear
3:12 AM 69.8 °F 60.8 °F 73% 29.70 in 10.0 mi SSE 16.1 mph 21.9 mph N/A   Clear
3:32 AM 69.8 °F 60.8 °F 73% 29.69 in 10.0 mi SSE 17.3 mph 24.2 mph N/A   Scattered Clouds
3:52 AM 69.8 °F 59.0 °F 68% 29.68 in 10.0 mi SSE 15.0 mph 21.9 mph N/A   Mostly Cloudy
4:13 AM 69.8 °F 59.0 °F 68% 29.68 in 10.0 mi SSE 16.1 mph - N/A   Scattered Clouds
4:32 AM 69.8 °F 59.0 °F 68% 29.68 in 10.0 mi SSE 15.0 mph 24.2 mph N/A   Scattered Clouds
4:52 AM 69.8 °F 60.8 °F 73% 29.68 in 10.0 mi SSE 12.7 mph 17.3 mph N/A   Mostly Cloudy
5:13 AM 69.8 °F 59.0 °F 68% 29.68 in 10.0 mi South 10.4 mph 18.4 mph N/A   Overcast
5:32 AM 69.8 °F 59.0 °F 68% 29.67 in 10.0 mi South 15.0 mph 27.6 mph N/A   Mostly Cloudy
5:52 AM 69.8 °F 60.8 °F 73% 29.67 in 10.0 mi South 15.0 mph 21.9 mph N/A   Overcast
6:13 AM 68.0 °F 60.8 °F 78% 29.67 in 10.0 mi South 11.5 mph 20.7 mph N/A Rain Rain
6:32 AM 66.2 °F 60.8 °F 83% 29.67 in 10.0 mi South 12.7 mph 17.3 mph N/A Rain Light Rain
6:52 AM 66.2 °F 62.6 °F 88% 29.67 in 10.0 mi South 9.2 mph - N/A Rain Light Rain
7:13 AM 64.4 °F 62.6 °F 94% 29.69 in 7.0 mi SSW 13.8 mph - 0.05 in Rain Heavy Rain
7:32 AM 62.6 °F 60.8 °F 94% 29.69 in 10.0 mi SSW 12.7 mph - 0.09 in Rain Rain
7:52 AM 60.8 °F 59.0 °F 94% 29.66 in 10.0 mi SW 9.2 mph - 0.11 in Rain Rain
8:13 AM 60.8 °F 59.0 °F 94% 29.67 in 7.0 mi WSW 11.5 mph - 0.01 in Rain Light Rain
8:32 AM 60.8 °F 57.2 °F 88% 29.68 in 10.0 mi WSW 17.3 mph - 0.01 in   Overcast
8:52 AM 57.2 °F 53.6 °F 88% 29.72 in 10.0 mi WSW 18.4 mph 26.5 mph 0.01 in   Overcast
9:13 AM 55.4 °F 53.6 °F 94% 29.73 in 10.0 mi West 16.1 mph 21.9 mph N/A   Overcast
9:32 AM 55.4 °F 53.6 °F 94% 29.74 in 7.0 mi West 18.4 mph 25.3 mph N/A Rain Rain
9:52 AM 55.4 °F 51.8 °F 88% 29.76 in 10.0 mi West 16.1 mph - N/A   Light Drizzle
10:13 AM 53.6 °F 51.8 °F 94% 29.78 in 2.0 mi West 15.0 mph 21.9 mph 0.01 in   Heavy Drizzle
10:32 AM 53.6 °F 51.8 °F 94% 29.79 in 2.0 mi West 12.7 mph - 0.02 in   Heavy Drizzle
10:53 AM 53.6 °F 51.8 °F 94% 29.79 in 10.0 mi West 12.7 mph 18.4 mph 0.02 in   Light Drizzle
11:12 AM 55.4 °F 51.8 °F 88% 29.81 in 10.0 mi West 15.0 mph 18.4 mph N/A   Overcast
11:32 AM 55.4 °F 51.8 °F 88% 29.81 in 10.0 mi West 15.0 mph - N/A   Mostly Cloudy
11:53 AM 55.4 °F 51.8 °F 88% 29.82 in 10.0 mi West 15.0 mph 25.3 mph N/A   Mostly Cloudy
12:12 PM 55.4 °F 51.8 °F 88% 29.82 in 10.0 mi West 13.8 mph 25.3 mph N/A   Overcast
12:32 PM 57.2 °F 50.0 °F 77% 29.83 in 10.0 mi West 15.0 mph 23.0 mph N/A   Overcast
12:53 PM 59.0 °F 50.0 °F 72% 29.83 in 10.0 mi West 17.3 mph 23.0 mph N/A   Overcast
1:12 PM 60.8 °F 48.2 °F 63% 29.84 in 10.0 mi West 20.7 mph 25.3 mph N/A   Overcast
1:32 PM 57.2 °F 48.2 °F 72% 29.84 in 10.0 mi West 18.4 mph 27.6 mph N/A   Overcast
1:53 PM 57.2 °F 46.4 °F 67% 29.85 in 10.0 mi West 19.6 mph 28.8 mph N/A   Overcast
2:12 PM 59.0 °F 46.4 °F 63% 29.85 in 10.0 mi West 20.7 mph 27.6 mph N/A   Mostly Cloudy
2:32 PM 60.8 °F 46.4 °F 59% 29.86 in 10.0 mi West 17.3 mph 28.8 mph N/A   Scattered Clouds
2:53 PM 60.8 °F 44.6 °F 55% 29.86 in 10.0 mi West 18.4 mph 24.2 mph N/A   Mostly Cloudy
3:12 PM 60.8 °F 44.6 °F 55% 29.87 in 10.0 mi West 23.0 mph 27.6 mph N/A   Mostly Cloudy
3:33 PM 60.8 °F 42.8 °F 52% 29.88 in 10.0 mi West 20.7 mph 29.9 mph N/A   Scattered Clouds
3:52 PM 60.8 °F 42.8 °F 52% 29.89 in 10.0 mi West 20.7 mph 26.5 mph N/A   Clear
4:12 PM 60.8 °F 42.8 °F 52% 29.89 in 10.0 mi West 16.1 mph 24.2 mph N/A   Clear
4:33 PM 62.6 °F 41.0 °F 45% 29.88 in 10.0 mi West 17.3 mph 25.3 mph N/A   Clear
4:52 PM 62.6 °F 41.0 °F 45% 29.89 in 10.0 mi West 16.1 mph 24.2 mph N/A   Clear
5:12 PM 62.6 °F 39.2 °F 42% 29.90 in 10.0 mi West 17.3 mph 24.2 mph N/A   Clear
5:33 PM 62.6 °F 39.2 °F 42% 29.90 in 10.0 mi West 11.5 mph 18.4 mph N/A   Clear
5:52 PM 62.6 °F 39.2 °F 42% 29.91 in 10.0 mi West 11.5 mph 18.4 mph N/A   Clear
6:12 PM 62.6 °F 39.2 °F 42% 29.92 in 10.0 mi West 10.4 mph - N/A   Clear
6:33 PM 60.8 °F 39.2 °F 45% 29.93 in 10.0 mi West 9.2 mph - N/A   Clear
6:52 PM 57.2 °F 41.0 °F 55% 29.94 in 10.0 mi West 5.8 mph - N/A   Clear
7:12 PM 55.4 °F 42.8 °F 63% 29.95 in 10.0 mi WSW 3.5 mph - N/A   Clear
7:32 PM 53.6 °F 42.8 °F 67% 29.95 in 10.0 mi West 3.5 mph - N/A   Clear
7:52 PM 51.8 °F 42.8 °F 71% 29.96 in 10.0 mi WSW 4.6 mph - N/A   Clear
8:13 PM 53.6 °F 42.8 °F 67% 29.97 in 10.0 mi SW 3.5 mph - N/A   Clear
8:32 PM 53.6 °F 42.8 °F 67% 29.97 in 10.0 mi SSW 4.6 mph - N/A   Clear
8:52 PM 53.6 °F 42.8 °F 67% 29.96 in 10.0 mi South 3.5 mph - N/A   Clear
9:12 PM 51.8 °F 42.8 °F 71% 29.97 in 10.0 mi Calm Calm - N/A   Clear
9:32 PM 51.8 °F 42.8 °F 71% 29.97 in 10.0 mi South 3.5 mph - N/A   Clear
9:53 PM 51.8 °F 42.8 °F 71% 29.98 in 10.0 mi South 4.6 mph - N/A   Clear
10:12 PM 51.8 °F 41.0 °F 67% 29.98 in 10.0 mi South 4.6 mph - N/A   Clear
10:32 PM 50.0 °F 42.8 °F 76% 29.98 in 10.0 mi South 3.5 mph - N/A   Clear
10:53 PM 50.0 °F 42.8 °F 76% 29.97 in 10.0 mi South 3.5 mph - N/A   Clear
11:12 PM 48.2 °F 42.8 °F 82% 29.98 in 10.0 mi South 4.6 mph - N/A   Clear
11:32 PM 48.2 °F 42.8 °F 82% 29.98 in 10.0 mi SSW 5.8 mph - N/A   Clear
11:53 PM 48.2 °F 41.0 °F 76% 29.98 in 10.0 mi Calm Calm - N/A   Clear